Location: Moscow
(55.7500°N, 37.5830°E)
Time: 20:39:19
(UTC+03:00)

ISS - Pass Details

Date: 26 May 2021
Orbit: 417 x 422 km, 51.6° (Epoch: 16 June)

Event Time Altitude Azimuth Distance (km) Brightness Sun altitude
Rises 22:28:16 0° 273° (W) 2,369 0.5 -9.0°
Reaches altitude 10° 22:30:50 10° 253° (WSW) 1,503 -0.8 -9.1°
Maximum altitude 22:33:09 18° 210° (SSW) 1,127 -1.9 -9.3°
Enters shadow 22:34:56 13° 174° (S) 1,357 -1.8 -9.4°
